Location: Asheville, NC
(35.6000°N, 82.5500°W)
Time: 00:34:22
(UTC-04:00)

Vanguard 2 - Pass Details

Date: 15 March 2018
Orbit: 553 x 2939 km, 32.9° (Epoch: 18 June)

Event Time Altitude Azimuth Distance (km) Brightness Sun altitude
Rises 10:23:14 0° 224° (SW) 4,924 11.5 30.9°
Reaches altitude 10° 10:26:11 10° 219° (SW) 4,220 11.3 31.4°
Maximum altitude 10:37:54 50° 148° (SSE) 2,973 11.9 33.5°
Drops below altitude 10° 10:54:13 10° 80° (E) 5,754 12.7 36.2°
Sets 10:59:00 0° 76° (ENE) 6,790 12.8 37.0°
